| time (UTC) | temp F | wind direction | speed knots | gust knots | rain 1hr in | rain 24hr in | rain mn in | humidity % | barometer mb |
| 20260507072511 | 52 | 173 | 0.0 | 1.7 | 0.00 | 0.00 | 0.00 | 88 | 1021.4 |
| 20260507072004 | 52 | 147 | 0.0 | 3.5 | 0.00 | 0.00 | 0.00 | 89 | 1021.4 |
| 20260507071511 | 52 | 198 | 0.0 | 6.1 | 0.00 | 0.00 | 0.00 | 88 | 1021.3 |
| 20260507071004 | 52 | 232 | 0.9 | 6.1 | 0.00 | 0.00 | 0.00 | 88 | 1021.3 |
| 20260507070508 | 52 | 148 | 0.9 | 5.2 | 0.00 | 0.00 | 0.00 | 88 | 1021.3 |
| 20260507070009 | 52 | 177 | 0.0 | 3.5 | 0.00 | 0.00 | 0.00 | 88 | 1021.3 |
| 20260507065503 | 52 | 167 | 1.7 | 3.5 | 0.00 | 0.00 | 0.00 | 88 | 1021.3 |
| 20260507065001 | 52 | 147 | 0.9 | 3.5 | 0.00 | 0.00 | 0.00 | 88 | 1021.3 |
| 20260507064510 | 52 | 204 | 0.9 | 3.5 | 0.00 | 0.00 | 0.00 | 88 | 1021.4 |
| 20260507064004 | 52 | 176 | 0.0 | 1.7 | 0.00 | 0.00 | 0.00 | 88 | 1021.4 |
| 20260507063505 | 52 | 176 | 0.0 | 3.5 | 0.00 | 0.00 | 0.00 | 87 | 1021.3 |
| 20260507063008 | 52 | 176 | 0.9 | 3.5 | 0.00 | 0.00 | 0.00 | 87 | 1021.3 |
| 20260507062508 | 53 | 140 | 0.9 | 5.2 | 0.00 | 0.00 | 0.00 | 87 | 1021.2 |
| 20260507062006 | 53 | 166 | 0.9 | 7.0 | 0.00 | 0.00 | 0.00 | 87 | 1021.3 |
| 20260507061526 | 53 | 178 | 1.7 | 7.0 | 0.00 | 0.00 | 0.00 | 86 | 1021.4 |
| 20260507061008 | 53 | 159 | 1.7 | 6.1 | 0.00 | 0.00 | 0.00 | 86 | 1021.4 |
| 20260507060504 | 53 | 170 | 1.7 | 4.3 | 0.00 | 0.00 | 0.00 | 86 | 1021.4 |
| 20260507060028 | 53 | 178 | 1.7 | 4.3 | 0.00 | 0.00 | 0.00 | 85 | 1021.4 |
| 20260507055507 | 54 | 183 | 0.9 | 3.5 | 0.00 | 0.00 | 0.00 | 85 | 1021.4 |
| 20260507055007 | 54 | 147 | 0.9 | 3.5 | 0.00 | 0.00 | 0.00 | 85 | 1021.4 |
| 20260507054503 | 54 | 180 | 1.7 | 3.5 | 0.00 | 0.00 | 0.00 | 85 | 1021.4 |
| 20260507054004 | 54 | 173 | 0.0 | 4.3 | 0.00 | 0.00 | 0.00 | 85 | 1021.5 |
| 20260507053504 | 54 | 148 | 0.9 | 4.3 | 0.00 | 0.00 | 0.00 | 84 | 1021.5 |
| 20260507053023 | 54 | 159 | 0.9 | 4.3 | 0.00 | 0.00 | 0.00 | 84 | 1021.5 |
| 20260507052504 | 54 | 183 | 0.0 | 4.3 | 0.00 | 0.00 | 0.00 | 84 | 1021.5 |
| 20260507052003 | 54 | 183 | 0.0 | 4.3 | 0.00 | 0.00 | 0.00 | 84 | 1021.5 |
| 20260507051508 | 54 | 167 | 0.0 | 2.6 | 0.00 | 0.00 | 0.00 | 84 | 1021.5 |
| 20260507051007 | 54 | 167 | 0.0 | 4.3 | 0.00 | 0.00 | 0.00 | 83 | 1021.5 |
| 20260507050506 | 55 | 123 | 0.0 | 4.3 | 0.00 | 0.00 | 0.00 | 83 | 1021.4 |
| 20260507050027 | 55 | 171 | 1.7 | 3.5 | 0.00 | 0.00 | 0.00 | 83 | 1021.4 |
| 20260507045505 | 55 | 311 | 0.0 | 0.9 | 0.00 | 0.00 | 0.00 | 82 | 1021.3 |
| 20260507045006 | 55 | 171 | 0.0 | 0.9 | 0.00 | 0.00 | 0.00 | 82 | 1021.3 |
| 20260507044534 | 55 | 171 | 0.0 | 4.3 | 0.00 | 0.00 | 0.00 | 82 | 1021.4 |
| 20260507044011 | 55 | 171 | 0.9 | 4.3 | 0.00 | 0.00 | 0.00 | 82 | 1021.5 |
| 20260507043507 | 55 | 212 | 0.9 | 4.3 | 0.00 | 0.00 | 0.00 | 82 | 1021.4 |
| 20260507043006 | 55 | 182 | 0.9 | 1.7 | 0.00 | 0.00 | 0.00 | 81 | 1021.4 |
| 20260507042507 | 55 | 150 | 0.0 | 1.7 | 0.00 | 0.00 | 0.00 | 81 | 1021.3 |
| 20260507042003 | 55 | 150 | 0.0 | 1.7 | 0.00 | 0.00 | 0.00 | 81 | 1021.4 |
| 20260507041507 | 55 | 132 | 0.0 | 1.7 | 0.00 | 0.00 | 0.00 | 81 | 1021.3 |
| 20260507041003 | 55 | 220 | 0.0 | 1.7 | 0.00 | 0.00 | 0.00 | 81 | 1021.3 |
| 20260507040504 | 55 | 220 | 0.0 | 0.9 | 0.00 | 0.00 | 0.00 | 81 | 1021.3 |
| 20260507040014 | 55 | 220 | 0.0 | 1.7 | 0.00 | 0.00 | 0.00 | 80 | 1021.3 |
| 20260507035507 | 55 | 220 | 0.0 | 1.7 | 0.00 | 0.00 | 0.00 | 80 | 1021.3 |
| 20260507035007 | 56 | 220 | 0.0 | 1.7 | 0.00 | 0.00 | 0.00 | 80 | 1021.2 |
| 20260507034519 | 56 | 220 | 0.0 | 1.7 | 0.00 | 0.00 | 0.00 | 80 | 1021.2 |
| 20260507034007 | 56 | 220 | 0.0 | 1.7 | 0.00 | 0.00 | 0.00 | 80 | 1021.2 |
| 20260507033507 | 56 | 220 | 0.0 | 1.7 | 0.00 | 0.00 | 0.00 | 80 | 1021.1 |
| 20260507033020 | 56 | 171 | 0.0 | 1.7 | 0.00 | 0.00 | 0.00 | 80 | 1021.1 |
| 20260507032508 | 56 | 157 | 0.0 | 1.7 | 0.00 | 0.00 | 0.00 | 79 | 1021.1 |
| 20260507032011 | 56 | 241 | 0.0 | 1.7 | 0.00 | 0.00 | 0.00 | 79 | 1021.1 |
| 20260507031505 | 56 | 264 | 0.0 | 1.7 | 0.00 | 0.00 | 0.00 | 79 | 1021.0 |
| 20260507031003 | 56 | 227 | 0.0 | 2.6 | 0.00 | 0.00 | 0.00 | 79 | 1021.0 |
| 20260507030505 | 56 | 261 | 0.9 | 2.6 | 0.00 | 0.00 | 0.00 | 78 | 1021.0 |
| 20260507030014 | 56 | 209 | 0.0 | 1.7 | 0.00 | 0.00 | 0.00 | 79 | 1021.0 |
| 20260507025504 | 56 | 209 | 0.0 | 1.7 | 0.00 | 0.00 | 0.00 | 79 | 1020.9 |
| 20260507025004 | 56 | 209 | 0.0 | 1.7 | 0.00 | 0.00 | 0.00 | 78 | 1020.9 |
| 20260507024518 | 56 | 252 | 0.0 | 1.7 | 0.00 | 0.00 | 0.00 | 78 | 1020.9 |
| 20260507024006 | 56 | 208 | 0.0 | 4.3 | 0.00 | 0.00 | 0.00 | 78 | 1020.9 |
| 20260507023505 | 56 | 196 | 0.0 | 4.3 | 0.00 | 0.00 | 0.00 | 78 | 1020.8 |
| 20260507023020 | 57 | 153 | 0.9 | 3.5 | 0.00 | 0.00 | 0.00 | 78 | 1020.8 |
| 20260507022507 | 57 | 146 | 0.0 | 2.6 | 0.00 | 0.00 | 0.00 | 78 | 1020.7 |
| 20260507022011 | 57 | 266 | 0.0 | 2.6 | 0.00 | 0.00 | 0.00 | 78 | 1020.8 |
| 20260507021525 | 57 | 273 | 0.0 | 2.6 | 0.00 | 0.00 | 0.00 | 77 | 1020.7 |
| 20260507021010 | 57 | 229 | 0.9 | 3.5 | 0.00 | 0.00 | 0.00 | 77 | 1020.7 |
| 20260507020504 | 57 | 205 | 0.9 | 3.5 | 0.00 | 0.00 | 0.00 | 77 | 1020.7 |
| 20260507020009 | 57 | 281 | 0.0 | 3.5 | 0.00 | 0.00 | 0.00 | 77 | 1020.7 |
| 20260507015504 | 57 | 255 | 0.9 | 3.5 | 0.00 | 0.00 | 0.00 | 77 | 1020.7 |
| 20260507015007 | 57 | 211 | 0.9 | 2.6 | 0.00 | 0.00 | 0.00 | 77 | 1020.7 |
| 20260507014514 | 57 | 208 | 0.0 | 2.6 | 0.00 | 0.00 | 0.00 | 77 | 1020.7 |
| 20260507014003 | 57 | 190 | 0.0 | 1.7 | 0.00 | 0.00 | 0.00 | 77 | 1020.7 |
| 20260507013504 | 57 | 173 | 0.0 | 3.5 | 0.00 | 0.00 | 0.00 | 78 | 1020.7 |
| 20260507013017 | 57 | 207 | 0.9 | 3.5 | 0.00 | 0.00 | 0.00 | 78 | 1020.8 |
| 20260507012511 | 57 | 169 | 0.0 | 2.6 | 0.00 | 0.00 | 0.00 | 78 | 1020.8 |
| 20260507012007 | 57 | 165 | 0.9 | 1.7 | 0.00 | 0.00 | 0.00 | 78 | 1020.8 |
| 20260507011528 | 57 | 201 | 0.0 | 1.7 | 0.00 | 0.00 | 0.00 | 78 | 1020.8 |
| 20260507011012 | 56 | 189 | 0.9 | 3.5 | 0.00 | 0.00 | 0.00 | 79 | 1020.8 |
| 20260507010509 | 56 | 144 | 0.0 | 3.5 | 0.00 | 0.00 | 0.00 | 79 | 1020.8 |
| 20260507010023 | 56 | 192 | 0.9 | 5.2 | 0.00 | 0.00 | 0.00 | 79 | 1020.9 |
| 20260507005513 | 56 | 113 | 1.7 | 7.8 | 0.00 | 0.00 | 0.00 | 78 | 1020.9 |
| 20260507005008 | 56 | 109 | 0.0 | 7.8 | 0.00 | 0.00 | 0.00 | 78 | 1021.0 |
| 20260507004512 | 57 | 296 | 0.9 | 6.1 | 0.00 | 0.00 | 0.00 | 78 | 1020.9 |
| 20260507004007 | 57 | 103 | 0.9 | 6.1 | 0.00 | 0.00 | 0.00 | 78 | 1020.9 |
| 20260507003511 | 57 | 184 | 0.9 | 6.1 | 0.00 | 0.00 | 0.00 | 77 | 1020.9 |
| 20260507003017 | 57 | 167 | 1.7 | 6.1 | 0.00 | 0.00 | 0.00 | 76 | 1020.9 |
| 20260507002506 | 57 | 309 | 0.9 | 4.3 | 0.00 | 0.00 | 0.00 | 76 | 1020.9 |
| 20260507002009 | 57 | 123 | 0.9 | 5.2 | 0.00 | 0.00 | 0.00 | 76 | 1020.9 |
| 20260507001523 | 57 | 202 | 1.7 | 4.3 | 0.00 | 0.00 | 0.00 | 75 | 1020.9 |
| 20260507001006 | 57 | 115 | 0.9 | 3.5 | 0.00 | 0.00 | 0.00 | 76 | 1020.9 |
| 20260507000507 | 57 | 192 | 0.0 | 3.5 | 0.00 | 0.00 | 0.00 | 76 | 1020.9 |
| 20260507000027 | 57 | 192 | 1.7 | 3.5 | 0.00 | 0.00 | 0.00 | 75 | 1020.9 |
| 20260506235509 | 57 | 188 | 0.9 | 4.3 | 0.00 | 0.00 | 0.00 | 75 | 1020.9 |
| 20260506235008 | 57 | 150 | 0.9 | 4.3 | 0.00 | 0.00 | 0.00 | 75 | 1020.9 |
| 20260506234525 | 58 | 189 | 0.9 | 3.5 | 0.00 | 0.00 | 0.00 | 75 | 1021.0 |
| 20260506234010 | 58 | 223 | 0.9 | 7.8 | 0.00 | 0.00 | 0.00 | 75 | 1020.9 |
| 20260506233505 | 58 | 289 | 1.7 | 7.8 | 0.00 | 0.00 | 0.00 | 75 | 1021.0 |
| 20260506233012 | 57 | 302 | 0.9 | 7.8 | 0.00 | 0.00 | 0.00 | 75 | 1020.9 |
| 20260506232506 | 57 | 192 | 1.7 | 7.8 | 0.00 | 0.00 | 0.00 | 74 | 1020.9 |
| 20260506232008 | 57 | 229 | 0.9 | 4.3 | 0.00 | 0.00 | 0.00 | 75 | 1021.0 |
| 20260506231519 | 57 | 266 | 0.9 | 7.0 | 0.00 | 0.00 | 0.00 | 75 | 1021.0 |
| 20260506231008 | 57 | 210 | 1.7 | 7.0 | 0.00 | 0.00 | 0.00 | 74 | 1020.9 |
| 20260506230505 | 57 | 283 | 0.9 | 5.2 | 0.00 | 0.00 | 0.00 | 74 | 1021.0 |
| 20260506230023 | 58 | 202 | 2.6 | 6.1 | 0.00 | 0.00 | 0.00 | 73 | 1021.0 |
| 20260506225507 | 58 | 197 | 0.9 | 6.1 | 0.00 | 0.00 | 0.00 | 73 | 1021.0 |
| 20260506225008 | 58 | 293 | 1.7 | 6.1 | 0.00 | 0.00 | 0.00 | 72 | 1021.0 |
| 20260506224524 | 58 | 214 | 0.9 | 6.1 | 0.00 | 0.00 | 0.00 | 73 | 1021.0 |
| 20260506224008 | 58 | 198 | 0.9 | 7.8 | 0.00 | 0.00 | 0.00 | 71 | 1021.0 |
| 20260506223508 | 59 | 59 | 0.9 | 7.8 | 0.00 | 0.00 | 0.00 | 71 | 1021.0 |
| 20260506223026 | 59 | 268 | 0.9 | 6.1 | 0.00 | 0.00 | 0.00 | 70 | 1021.0 |
| 20260506222505 | 59 | 15 | 0.9 | 6.1 | 0.00 | 0.00 | 0.00 | 71 | 1021.0 |
| 20260506222006 | 59 | 301 | 0.0 | 6.1 | 0.00 | 0.00 | 0.00 | 71 | 1021.1 |
| 20260506221515 | 58 | 101 | 0.9 | 6.1 | 0.00 | 0.00 | 0.00 | 71 | 1021.1 |
| 20260506221011 | 58 | 171 | 1.7 | 6.1 | 0.00 | 0.00 | 0.00 | 72 | 1021.2 |
| 20260506220503 | 58 | 145 | 1.7 | 6.1 | 0.00 | 0.00 | 0.00 | 71 | 1021.1 |
| 20260506220005 | 58 | 204 | 0.9 | 5.2 | 0.00 | 0.00 | 0.00 | 71 | 1021.3 |
| 20260506215503 | 58 | 55 | 0.9 | 5.2 | 0.00 | 0.00 | 0.00 | 71 | 1021.2 |
| 20260506215003 | 58 | 115 | 1.7 | 5.2 | 0.00 | 0.00 | 0.00 | 71 | 1021.2 |
| 20260506214506 | 58 | 209 | 2.6 | 5.2 | 0.00 | 0.00 | 0.00 | 70 | 1021.1 |
| 20260506214003 | 58 | 248 | 0.9 | 7.0 | 0.00 | 0.00 | 0.00 | 72 | 1021.3 |
| 20260506213503 | 58 | 279 | 0.9 | 7.0 | 0.00 | 0.00 | 0.00 | 73 | 1021.2 |
| 20260506213014 | 58 | 292 | 1.7 | 6.1 | 0.00 | 0.00 | 0.00 | 73 | 1021.2 |
| 20260506212502 | 58 | 195 | 1.7 | 6.1 | 0.00 | 0.00 | 0.00 | 72 | 1021.3 |
| 20260506212006 | 58 | 276 | 0.9 | 5.2 | 0.00 | 0.00 | 0.00 | 74 | 1021.3 |
| 20260506211514 | 58 | 178 | 1.7 | 6.1 | 0.00 | 0.00 | 0.00 | 73 | 1021.3 |
| 20260506211007 | 58 | 299 | 0.9 | 6.1 | 0.00 | 0.00 | 0.00 | 73 | 1021.3 |
| 20260506210504 | 58 | 202 | 0.9 | 6.1 | 0.00 | 0.00 | 0.00 | 73 | 1021.2 |
| 20260506210021 | 58 | 276 | 1.7 | 4.3 | 0.00 | 0.00 | 0.00 | 72 | 1021.3 |
| 20260506205507 | 58 | 282 | 0.0 | 7.0 | 0.00 | 0.00 | 0.00 | 73 | 1021.2 |
| 20260506205003 | 58 | 92 | 0.0 | 7.0 | 0.00 | 0.00 | 0.00 | 73 | 1021.2 |
| 20260506204504 | 58 | 265 | 2.6 | 6.1 | 0.00 | 0.00 | 0.00 | 73 | 1021.1 |
| 20260506204005 | 58 | 142 | 1.7 | 4.3 | 0.00 | 0.00 | 0.00 | 73 | 1021.1 |
| 20260506203504 | 58 | 115 | 0.9 | 5.2 | 0.00 | 0.00 | 0.00 | 73 | 1021.2 |
| 20260506203009 | 57 | 178 | 1.7 | 6.1 | 0.00 | 0.00 | 0.00 | 74 | 1021.2 |
| 20260506202504 | 57 | 153 | 0.0 | 6.1 | 0.00 | 0.00 | 0.00 | 76 | 1021.1 |
| 20260506202004 | 57 | 298 | 0.9 | 4.3 | 0.00 | 0.00 | 0.00 | 77 | 1021.1 |
| 20260506201512 | 57 | 338 | 0.9 | 8.7 | 0.00 | 0.00 | 0.00 | 77 | 1021.1 |
| 20260506201005 | 56 | 240 | 1.7 | 8.7 | 0.00 | 0.00 | 0.00 | 77 | 1021.2 |
| 20260506200505 | 56 | 209 | 1.7 | 4.3 | 0.00 | 0.00 | 0.00 | 77 | 1021.1 |
| 20260506200024 | 56 | 198 | 0.9 | 4.3 | 0.00 | 0.00 | 0.00 | 78 | 1021.1 |
| 20260506195506 | 56 | 219 | 0.0 | 2.6 | 0.00 | 0.00 | 0.00 | 79 | 1021.1 |
| 20260506195009 | 56 | 219 | 1.7 | 6.1 | 0.00 | 0.00 | 0.00 | 80 | 1021.0 |
| 20260506194518 | 56 | 118 | 0.0 | 6.1 | 0.00 | 0.00 | 0.00 | 81 | 1021.0 |
| 20260506194008 | 56 | 150 | 2.6 | 6.1 | 0.00 | 0.00 | 0.00 | 80 | 1021.0 |
| 20260506193502 | 55 | 261 | 0.9 | 5.2 | 0.00 | 0.00 | 0.00 | 82 | 1021.0 |
| 20260506193006 | 55 | 175 | 0.9 | 5.2 | 0.00 | 0.00 | 0.00 | 82 | 1021.0 |
| 20260506192504 | 55 | 137 | 0.0 | 2.6 | 0.00 | 0.00 | 0.00 | 83 | 1021.0 |
| 20260506192004 | 55 | 161 | 0.9 | 5.2 | 0.00 | 0.00 | 0.00 | 84 | 1021.0 |
| 20260506191510 | 55 | 210 | 0.9 | 5.2 | 0.00 | 0.00 | 0.00 | 84 | 1020.9 |
| 20260506191004 | 55 | 157 | 0.9 | 3.5 | 0.00 | 0.00 | 0.00 | 85 | 1020.9 |
| 20260506190505 | 55 | 175 | 1.7 | 3.5 | 0.00 | 0.00 | 0.00 | 85 | 1020.9 |
| 20260506190012 | 55 | 172 | 0.0 | 3.5 | 0.00 | 0.00 | 0.00 | 88 | 1020.8 |
| 20260506185505 | 54 | 148 | 0.0 | 3.5 | 0.00 | 0.00 | 0.00 | 88 | 1020.9 |
| 20260506185004 | 54 | 196 | 0.9 | 4.3 | 0.00 | 0.00 | 0.00 | 89 | 1020.9 |
| 20260506184517 | 54 | 319 | 0.0 | 5.2 | 0.00 | 0.00 | 0.00 | 89 | 1020.9 |
| 20260506184007 | 54 | 125 | 0.9 | 5.2 | 0.00 | 0.00 | 0.00 | 90 | 1020.9 |
| 20260506183509 | 54 | 219 | 0.0 | 2.6 | 0.00 | 0.00 | 0.00 | 90 | 1021.0 |
| 20260506183022 | 54 | 313 | 0.9 | 1.7 | 0.00 | 0.00 | 0.00 | 89 | 1020.9 |
| 20260506182506 | 54 | 171 | 0.0 | 1.7 | 0.00 | 0.00 | 0.00 | 90 | 1020.9 |
| 20260506182006 | 54 | 137 | 0.0 | 4.3 | 0.00 | 0.00 | 0.00 | 90 | 1020.8 |
| 20260506181506 | 53 | 93 | 0.0 | 6.1 | 0.00 | 0.00 | 0.00 | 90 | 1020.9 |
| 20260506181004 | 53 | 147 | 0.9 | 6.1 | 0.00 | 0.00 | 0.00 | 90 | 1020.9 |
| 20260506180506 | 53 | 204 | 0.9 | 3.5 | 0.00 | 0.00 | 0.00 | 90 | 1020.9 |
| 20260506180012 | 53 | 255 | 0.9 | 4.3 | 0.00 | 0.00 | 0.00 | 90 | 1020.7 |
| 20260506175504 | 53 | 270 | 0.0 | 4.3 | 0.00 | 0.00 | 0.00 | 91 | 1020.6 |
| 20260506175004 | 53 | 203 | 0.9 | 6.1 | 0.00 | 0.00 | 0.00 | 91 | 1020.4 |
| 20260506174513 | 53 | 161 | 1.7 | 6.1 | 0.00 | 0.00 | 0.00 | 90 | 1020.5 |
| 20260506174005 | 54 | 171 | 0.9 | 3.5 | 0.00 | 0.00 | 0.00 | 90 | 1020.5 |
| 20260506173508 | 54 | 173 | 0.9 | 3.5 | 0.00 | 0.00 | 0.00 | 90 | 1020.5 |
| 20260506173019 | 54 | 168 | 0.0 | 3.5 | 0.00 | 0.00 | 0.00 | 90 | 1020.6 |
| 20260506172509 | 54 | 124 | 1.7 | 3.5 | 0.00 | 0.00 | 0.00 | 89 | 1020.6 |
| 20260506172006 | 54 | 188 | 0.0 | 3.5 | 0.00 | 0.00 | 0.00 | 89 | 1020.9 |
| 20260506171522 | 54 | 216 | 0.9 | 3.5 | 0.00 | 0.00 | 0.00 | 89 | 1020.6 |
| 20260506171008 | 54 | 188 | 0.0 | 2.6 | 0.00 | 0.00 | 0.00 | 88 | 1020.6 |
| 20260506170504 | 54 | 311 | 0.0 | 2.6 | 0.00 | 0.00 | 0.00 | 88 | 1020.8 |
| 20260506170011 | 54 | 166 | 0.9 | 2.6 | 0.00 | 0.00 | 0.00 | 87 | 1020.7 |
| 20260506165504 | 54 | 243 | 0.0 | 1.7 | 0.00 | 0.00 | 0.00 | 86 | 1020.6 |
| 20260506165005 | 54 | 259 | 0.0 | 2.6 | 0.00 | 0.00 | 0.00 | 86 | 1020.6 |
| 20260506164514 | 54 | 164 | 0.0 | 5.2 | 0.00 | 0.00 | 0.00 | 86 | 1020.4 |
| 20260506164009 | 54 | 286 | 1.7 | 5.2 | 0.00 | 0.00 | 0.00 | 86 | 1020.5 |
| 20260506163508 | 54 | 194 | 0.9 | 1.7 | 0.00 | 0.00 | 0.00 | 87 | 1020.6 |
| 20260506163031 | 54 | 223 | 0.0 | 5.2 | 0.00 | 0.00 | 0.00 | 87 | 1020.4 |
| 20260506162506 | 54 | 215 | 1.7 | 5.2 | 0.00 | 0.00 | 0.00 | 87 | 1020.3 |
| 20260506162008 | 54 | 165 | 0.0 | 3.5 | 0.00 | 0.00 | 0.00 | 88 | 1020.3 |
| 20260506161522 | 53 | 199 | 0.9 | 4.3 | 0.00 | 0.00 | 0.00 | 88 | 1020.2 |
| 20260506161009 | 53 | 246 | 0.9 | 5.2 | 0.00 | 0.00 | 0.00 | 90 | 1020.3 |
| 20260506160514 | 53 | 128 | 0.9 | 5.2 | 0.00 | 0.00 | 0.00 | 91 | 1020.2 |
| 20260506160023 | 53 | 221 | 0.9 | 4.3 | 0.00 | 0.00 | 0.00 | 91 | 1020.0 |
| 20260506155507 | 53 | 224 | 0.0 | 3.5 | 0.00 | 0.00 | 0.00 | 91 | 1020.1 |
| 20260506155007 | 53 | 112 | 0.9 | 5.2 | 0.00 | 0.00 | 0.00 | 91 | 1020.0 |
| 20260506154511 | 53 | 226 | 1.7 | 7.8 | 0.00 | 0.00 | 0.00 | 91 | 1020.1 |
| 20260506154010 | 53 | 137 | 0.9 | 7.8 | 0.00 | 0.00 | 0.00 | 90 | 1020.2 |
| 20260506153507 | 53 | 156 | 2.6 | 5.2 | 0.00 | 0.00 | 0.00 | 91 | 1020.2 |
| 20260506153015 | 53 | 148 | 1.7 | 5.2 | 0.00 | 0.00 | 0.00 | 91 | 1020.3 |
| 20260506152506 | 53 | 147 | 1.7 | 4.3 | 0.00 | 0.00 | 0.00 | 91 | 1020.4 |
| 20260506152009 | 53 | 169 | 0.9 | 2.6 | 0.00 | 0.00 | 0.00 | 92 | 1020.4 |
| 20260506151518 | 53 | 211 | 0.0 | 4.3 | 0.00 | 0.00 | 0.00 | 92 | 1020.4 |
| 20260506151008 | 53 | 207 | 0.0 | 4.3 | 0.00 | 0.00 | 0.00 | 92 | 1020.3 |
| 20260506150507 | 53 | 250 | 0.0 | 3.5 | 0.00 | 0.00 | 0.00 | 92 | 1020.2 |
| 20260506150023 | 52 | 181 | 0.9 | 4.3 | 0.00 | 0.00 | 0.00 | 92 | 1020.1 |
| 20260506145508 | 52 | 186 | 1.7 | 4.3 | 0.00 | 0.00 | 0.00 | 91 | 1020.0 |
| 20260506145006 | 53 | 117 | 1.7 | 4.3 | 0.00 | 0.00 | 0.00 | 91 | 1020.0 |
| 20260506144525 | 53 | 188 | 0.9 | 3.5 | 0.00 | 0.00 | 0.00 | 91 | 1020.1 |
| 20260506144010 | 53 | 187 | 1.7 | 4.3 | 0.00 | 0.00 | 0.00 | 91 | 1020.1 |
| 20260506143506 | 53 | 204 | 0.9 | 4.3 | 0.00 | 0.00 | 0.00 | 91 | 1020.1 |
| 20260506143017 | 53 | 216 | 0.0 | 1.7 | 0.00 | 0.00 | 0.00 | 90 | 1020.2 |
| 20260506142506 | 52 | 215 | 0.9 | 1.7 | 0.00 | 0.00 | 0.00 | 90 | 1020.1 |
| 20260506142009 | 53 | 202 | 0.9 | 2.6 | 0.00 | 0.00 | 0.00 | 90 | 1020.0 |
| 20260506141518 | 53 | 242 | 0.0 | 2.6 | 0.00 | 0.00 | 0.00 | 89 | 1020.1 |
| 20260506141008 | 53 | 301 | 0.0 | 2.6 | 0.00 | 0.00 | 0.00 | 89 | 1020.0 |
| 20260506140515 | 53 | 279 | 0.0 | 2.6 | 0.00 | 0.00 | 0.00 | 89 | 1019.8 |
| 20260506140024 | 53 | 210 | 0.0 | 1.7 | 0.00 | 0.00 | 0.00 | 89 | 1019.8 |
| 20260506135507 | 53 | 189 | 0.0 | 2.6 | 0.00 | 0.00 | 0.00 | 89 | 1019.8 |
| 20260506135006 | 53 | 174 | 0.0 | 2.6 | 0.00 | 0.00 | 0.00 | 89 | 1019.9 |
| 20260506134525 | 53 | 224 | 0.0 | 1.7 | 0.00 | 0.00 | 0.00 | 89 | 1020.0 |
| 20260506134013 | 53 | 244 | 0.0 | 4.3 | 0.00 | 0.00 | 0.00 | 89 | 1019.8 |
| 20260506133509 | 53 | 265 | 0.0 | 5.2 | 0.00 | 0.00 | 0.00 | 89 | 1019.7 |
| 20260506133024 | 53 | 148 | 1.7 | 5.2 | 0.00 | 0.00 | 0.00 | 89 | 1019.7 |
| 20260506132506 | 53 | 248 | 0.0 | 4.3 | 0.00 | 0.00 | 0.00 | 89 | 1019.8 |
| 20260506132007 | 53 | 210 | 0.9 | 4.3 | 0.00 | 0.00 | 0.00 | 89 | 1019.6 |
| 20260506131518 | 53 | 153 | 0.0 | 1.7 | 0.00 | 0.00 | 0.00 | 89 | 1019.7 |
| 20260506131008 | 53 | 231 | 0.9 | 1.7 | 0.00 | 0.00 | 0.00 | 89 | 1019.6 |
| 20260506130506 | 53 | 317 | 0.9 | 5.2 | 0.00 | 0.00 | 0.00 | 89 | 1019.7 |
| 20260506130006 | 53 | 190 | 0.9 | 7.0 | 0.00 | 0.00 | 0.00 | 89 | 1019.4 |
| 20260506125502 | 53 | 188 | 1.7 | 7.0 | 0.00 | 0.00 | 0.00 | 88 | 1019.1 |
| 20260506125005 | 53 | 191 | 1.7 | 3.5 | 0.00 | 0.00 | 0.00 | 88 | 1019.3 |
| 20260506124504 | 53 | 177 | 0.0 | 3.5 | 0.00 | 0.00 | 0.00 | 88 | 1019.4 |
| 20260506123505 | 53 | 171 | 1.7 | 4.3 | 0.00 | 0.00 | 0.00 | 88 | 1019.3 |
| 20260506123010 | 53 | 161 | 0.9 | 4.3 | 0.00 | 0.00 | 0.00 | 88 | 1019.3 |
| 20260506122507 | 53 | 106 | 0.0 | 5.2 | 0.00 | 0.00 | 0.00 | 88 | 1019.2 |
| 20260506122003 | 53 | 196 | 1.7 | 5.2 | 0.00 | 0.00 | 0.00 | 88 | 1019.2 |
| 20260506121512 | 53 | 273 | 1.7 | 6.1 | 0.00 | 0.00 | 0.00 | 88 | 1019.2 |
| 20260506121006 | 53 | 182 | 1.7 | 6.1 | 0.00 | 0.00 | 0.00 | 88 | 1019.1 |
| 20260506120511 | 53 | 184 | 0.9 | 3.5 | 0.00 | 0.00 | 0.00 | 88 | 1019.2 |
| 20260506120020 | 53 | 168 | 0.0 | 1.7 | 0.00 | 0.00 | 0.00 | 88 | 1019.1 |
| 20260506115507 | 53 | 168 | 0.0 | 4.3 | 0.00 | 0.00 | 0.00 | 88 | 1019.2 |
| 20260506115004 | 53 | 240 | 0.0 | 4.3 | 0.00 | 0.00 | 0.00 | 88 | 1019.2 |
| 20260506114503 | 53 | 175 | 0.9 | 4.3 | 0.00 | 0.00 | 0.00 | 88 | 1019.1 |
| 20260506114004 | 53 | 211 | 0.9 | 4.3 | 0.00 | 0.00 | 0.00 | 88 | 1019.0 |
| 20260506113503 | 53 | 235 | 0.9 | 2.6 | 0.00 | 0.00 | 0.00 | 88 | 1019.0 |
| 20260506113014 | 53 | 205 | 0.0 | 1.7 | 0.00 | 0.00 | 0.00 | 88 | 1018.8 |
| 20260506112505 | 53 | 202 | 0.9 | 1.7 | 0.00 | 0.00 | 0.00 | 88 | 1018.8 |
| 20260506112004 | 53 | 229 | 0.0 | 4.3 | 0.00 | 0.00 | 0.00 | 88 | 1018.7 |
| 20260506111509 | 53 | 260 | 0.9 | 3.5 | 0.00 | 0.00 | 0.00 | 88 | 1018.8 |
| 20260506111004 | 53 | 215 | 0.9 | 2.6 | 0.00 | 0.00 | 0.00 | 88 | 1018.7 |
| 20260506110504 | 53 | 141 | 0.9 | 2.6 | 0.00 | 0.00 | 0.00 | 88 | 1018.7 |
| 20260506110016 | 53 | 195 | 0.0 | 1.7 | 0.00 | 0.00 | 0.00 | 88 | 1018.7 |
| 20260506105512 | 53 | 219 | 0.9 | 1.7 | 0.00 | 0.00 | 0.00 | 88 | 1018.6 |
| 20260506105007 | 53 | 302 | 0.9 | 2.6 | 0.00 | 0.00 | 0.00 | 88 | 1018.5 |
| 20260506104544 | 53 | 199 | 0.9 | 2.6 | 0.00 | 0.00 | 0.00 | 88 | 1018.5 |
| 20260506103503 | 53 | 103 | 0.9 | 3.5 | 0.00 | 0.00 | 0.00 | 88 | 1018.5 |
| 20260506103004 | 53 | 169 | 0.0 | 3.5 | 0.00 | 0.00 | 0.00 | 88 | 1018.4 |
| 20260506102504 | 53 | 254 | 0.0 | 1.7 | 0.00 | 0.00 | 0.00 | 88 | 1018.3 |
| 20260506102004 | 53 | 254 | 0.0 | 1.7 | 0.00 | 0.00 | 0.00 | 88 | 1018.4 |
| 20260506101510 | 53 | 233 | 0.0 | 3.5 | 0.00 | 0.00 | 0.00 | 88 | 1018.4 |
| 20260506101008 | 53 | 176 | 0.9 | 3.5 | 0.00 | 0.00 | 0.00 | 88 | 1018.4 |
| 20260506100504 | 53 | 216 | 0.9 | 3.5 | 0.00 | 0.00 | 0.00 | 88 | 1018.3 |
| 20260506100013 | 53 | 228 | 0.9 | 2.6 | 0.00 | 0.00 | 0.00 | 89 | 1018.3 |
| 20260506095504 | 53 | 256 | 0.0 | 1.7 | 0.00 | 0.00 | 0.00 | 89 | 1018.3 |
| 20260506095005 | 53 | 221 | 0.0 | 1.7 | 0.00 | 0.00 | 0.00 | 89 | 1018.1 |
| 20260506094007 | 52 | 181 | 0.0 | 2.6 | 0.00 | 0.00 | 0.00 | 90 | 1018.0 |
| 20260506092507 | 52 | 193 | 0.0 | 1.7 | 0.00 | 0.00 | 0.00 | 90 | 1018.0 |
| 20260506092004 | 52 | 184 | 0.0 | 1.7 | 0.00 | 0.00 | 0.00 | 90 | 1017.9 |
| 20260506091508 | 52 | 252 | 0.0 | 1.7 | 0.00 | 0.00 | 0.00 | 90 | 1017.9 |
| 20260506091003 | 52 | 239 | 0.0 | 1.7 | 0.00 | 0.00 | 0.00 | 89 | 1017.8 |
| 20260506090504 | 52 | 244 | 0.0 | 3.5 | 0.00 | 0.00 | 0.00 | 89 | 1017.8 |
| 20260506090011 | 52 | 172 | 0.0 | 3.5 | 0.00 | 0.00 | 0.00 | 89 | 1017.8 |
| 20260506085505 | 52 | 221 | 0.0 | 1.7 | 0.00 | 0.00 | 0.00 | 89 | 1017.7 |
| 20260506084517 | 53 | 259 | 0.0 | 1.7 | 0.00 | 0.00 | 0.00 | 89 | 1017.6 |
| 20260506083507 | 53 | 212 | 0.0 | 1.7 | 0.00 | 0.00 | 0.00 | 89 | 1017.4 |
| 20260506083019 | 53 | 212 | 0.0 | 1.7 | 0.00 | 0.00 | 0.00 | 89 | 1017.3 |
| 20260506082511 | 53 | 212 | 0.0 | 1.7 | 0.00 | 0.00 | 0.00 | 89 | 1017.3 |
| 20260506081524 | 53 | 186 | 0.0 | 1.7 | 0.00 | 0.00 | 0.00 | 89 | 1017.3 |
| 20260506080504 | 53 | 186 | 0.0 | 1.7 | 0.00 | 0.00 | 0.00 | 89 | 1017.2 |
| 20260506073510 | 54 | 220 | 0.0 | 1.7 | 0.00 | 0.00 | 0.00 | 88 | 1017.1 |
| 20260506073018 | 54 | 220 | 0.0 | 1.7 | 0.00 | 0.00 | 0.00 | 88 | 1017.1 |